Location: Corbeyrier
(46.3489°N, 6.9604°E)
Time: 07:49:26
(UTC+00:00)

Daily predictions for brighter satellites

Satellite Brightness Start Highest point End
(mag) Time Altitude Azimuth Time Altitude Azimuth Time Altitude Azimuth
Cosmos 1833 Rocket 2.9 19:47:30 10° NNW 19:53:07 76° WSW 19:58:43 10° SSE
Tsikada Rocket 4.5 19:47:21 10° SSW 19:53:29 67° W 19:59:38 10° N
Cosmos 1943 Rocket 3.9 19:51:53 10° SE 19:54:30 14° E 19:57:08 10° ENE
STARLINK-1109 3.7 19:50:41 10° WNW 19:54:50 75° SSW 19:58:58 10° SE
STARLINK-1246 3.7 19:53:24 10° WSW 19:57:34 87° NNW 20:01:43 10° ENE
IGS 5A 4.5 19:56:01 10° SE 19:59:43 32° ENE 20:03:26 10° N
STARLINK-1091 3.7 19:55:38 10° WNW 19:59:47 69° SSW 20:03:53 10° SE
Cosmos 2082 Rocket 2.3 19:54:02 10° NNW 19:59:48 79° ENE 20:05:30 10° SSE
Cosmos 1420 Rocket 4.0 19:54:49 10° SSW 20:00:01 90° WSW 20:05:15 10° NNE
Cosmos 1452 Rocket 3.5 19:55:06 10° S 20:00:19 65° ESE 20:05:34 10° NNE
Cosmos 332 Rocket 4.1 19:55:55 10° S 20:00:39 50° ESE 20:05:23 10° NNE
BREEZE-M DEB 3.7 19:59:10 10° S 20:00:43 16° SE 20:02:51 10° E
DMSP B5D2-2 4.4 19:55:42 10° N 20:01:01 77° WNW 20:06:16 10° SSW
STARLINK-1097 4.5 19:57:58 10° NW 20:01:59 47° NNE 20:06:00 10° E
STARLINK-1224 3.7 19:58:23 10° WSW 20:02:31 82° NNW 20:06:41 10° ENE
Intercosmos 24 3.9 19:59:17 10° N 20:02:48 56° E 20:06:36 10° SSE
STARLINK-1072 3.8 20:00:40 10° WNW 20:04:46 64° SW 20:08:52 10° SE
MOS 1 Rocket 4.2 20:02:26 10° N 20:06:40 48° WNW 20:10:46 10° SW
Cosmos 1461 3.2 20:02:56 10° SSW 20:06:53 46° ESE 20:11:03 10° NE
STARLINK-1099 4.4 20:02:56 10° NW 20:06:58 49° NNE 20:11:01 10° E
STARLINK-1225 3.8 20:03:23 10° WSW 20:07:31 77° NNW 20:11:41 10° ENE
Okean 3 3.6 20:04:55 10° S 20:09:13 85° WNW 20:13:33 10° N
STARLINK-1096 3.9 20:05:39 10° WNW 20:09:45 59° SW 20:13:39 11° SE
Cosmos 2369 Rocket 3.9 20:07:48 10° SE 20:10:24 13° E 20:13:01 10° ENE
SAR-Lupe-2 4.4 20:08:19 10° NNE 20:11:35 31° E 20:14:49 10° SSE
STARLINK-1104 4.3 20:07:54 10° NW 20:11:58 52° NNE 20:16:01 10° E
STARLINK-1230 3.9 20:08:22 10° WSW 20:12:30 72° NNW 20:16:39 10° ENE
NOSS 2-2 (C) 4.2 20:10:20 10° S 20:13:15 24° ESE 20:16:19 10° ENE
STARLINK-1079 4.0 20:10:39 10° WNW 20:14:42 55° SW 20:18:26 12° SE
STARLINK-1144 4.2 20:12:53 10° NW 20:16:58 54° NNE 20:21:03 10° E
Cosmos 2221 Rocket 3.8 20:12:35 10° SSW 20:17:06 77° W 20:21:41 10° N
SL-4 R/B 2.9 20:14:53 10° NW 20:17:30 26° WSW 20:19:56 10° S
STARLINK-1243 4.0 20:13:22 10° WSW 20:17:30 68° NNW 20:21:39 10° ENE
SPOT 5 4.1 20:14:18 10° SE 20:18:54 33° ENE 20:23:38 10° N
STARLINK-1116 4.1 20:15:39 10° WNW 20:19:39 50° SW 20:23:13 13° SE
NOSS 8 (F) 4.1 20:17:14 10° SW 20:20:30 81° SE 20:23:33 10° NE
Meteor 1-13 Rocket 4.2 20:15:06 10° S 20:20:43 81° E 20:26:30 10° NNE
STARLINK-1103 4.1 20:17:51 10° WNW 20:21:57 57° NNE 20:26:02 10° ESE
STARLINK-1236 4.1 20:18:21 10° WSW 20:22:28 64° NNW 20:26:36 10° ENE
ERS-1 Rocket 3.7 20:19:40 11° SE 20:24:01 39° ENE 20:28:42 10° N
STARLINK-1101 4.0 20:22:50 10° WNW 20:26:57 60° NNE 20:31:00 10° ESE
Cosmos 1066 Rocket 4.4 20:23:16 10° SSE 20:28:25 49° E 20:33:34 10° NNE
STARLINK-1094 4.3 20:25:39 10° WNW 20:29:35 43° SW 20:32:47 14° SSE
USA 245 2.4 20:27:55 14° SSE 20:30:23 69° ENE 20:32:56 10° N
USA 238 DEB 4.4 20:24:27 10° NW 20:31:25 51° NE 20:38:25 11° ESE
USA 238 4.4 20:24:33 10° NW 20:31:31 51° NE 20:38:32 11° ESE
STARLINK-1102 3.9 20:27:49 10° WNW 20:31:57 64° NNE 20:35:48 12° ESE
STARLINK-1269 4.3 20:28:22 10° WSW 20:32:28 57° NNW 20:36:34 10° ENE
Cosmos 2278 Rocket 3.5 20:27:54 10° SW 20:33:19 44° NW 20:38:46 10° NNE
TSX-5 4.3 20:27:46 10° SSW 20:33:29 78° ESE 20:37:52 10° NNE
Resurs 01 Rocket 2.6 20:29:39 10° S 20:33:55 44° W 20:38:12 10° NNW
Okean 1 Rocket 3.3 20:29:58 10° N 20:34:23 54° ENE 20:37:54 15° SSE
STARLINK-1117 4.4 20:30:40 10° WNW 20:34:32 39° SW 20:37:34 15° SSE
Cosmos 1805 4.3 20:31:03 10° N 20:34:36 31° ENE 20:37:07 16° SE
Nadezhda 4 Rocket 4.2 20:28:57 10° SSE 20:34:53 54° E 20:40:49 10° NNE
Cosmos 1741 Rocket 4.1 20:29:46 10° NNW 20:35:00 77° WSW 20:39:48 12° SSE
Okean 2 Rocket 4.0 20:30:47 10° NNW 20:35:02 47° W 20:39:15 10° SSW
GPS 2-04 Rocket1 4.3 20:33:08 10° SW 20:35:08 14° S 20:35:57 14° SSE
STARLINK-1111 3.8 20:32:47 10° WNW 20:36:56 68° NNE 20:40:34 13° ESE
STARLINK-1200 4.4 20:33:22 10° WSW 20:37:26 54° NNW 20:41:32 10° NE
MetOp-B 4.3 20:32:23 10° S 20:37:43 73° WSW 20:43:06 10° NNW
SL-8 R/B 3.7 20:37:05 10° WNW 20:41:55 88° SSW 20:46:17 13° ESE
STARLINK-1073 3.8 20:37:46 10° WNW 20:41:55 72° NNE 20:45:22 15° ESE
Cosmos 2279 Rocket 4.4 20:36:56 10° NNW 20:43:06 64° W 20:49:13 10° S
Cosmos 1850 Rocket 4.4 20:39:16 10° NNW 20:44:33 62° WSW 20:49:25 12° S
Cosmos 371 Rocket 4.3 20:40:28 10° SW 20:45:11 50° WNW 20:49:57 10° NNE
ATLAS 3B CENTAUR R/B 4.2 20:35:49 10° SW 20:46:26 25° S 20:50:57 16° SSE
SL-4 R/B 3.4 20:43:03 10° S 20:46:48 23° SE 20:50:38 10° E
STARLINK-1121 3.7 20:42:44 10° WNW 20:46:54 77° NNE 20:50:08 16° ESE
Cosmos 1110 Rocket 4.0 20:42:07 10° S 20:47:15 66° ESE 20:52:23 10° NNE
Terra 2.6 20:44:22 16° SE 20:47:42 39° ENE 20:52:06 10° N
Spot 2 Rocket 3.7 20:44:03 11° S 20:48:51 70° WSW 20:53:55 10° NNW
SPOT 1/Viking Rocket 3.5 20:45:17 14° SSE 20:49:44 87° ENE 20:54:55 10° NNW
Cosmos 2151 Rocket 4.5 20:45:25 10° NNW 20:49:48 48° W 20:54:09 10° SSW
Abrixas rocket 2.0 20:47:29 10° WNW 20:50:24 58° SSW 20:51:50 26° SE
CARTOSAT-1 3.7 20:47:49 18° SSE 20:50:53 60° ENE 20:55:09 10° N
NOSS 8 (H) 4.2 20:48:29 10° SW 20:51:40 80° NW 20:54:44 10° NE
STARLINK-1106 3.6 20:47:44 10° WNW 20:51:55 82° NNE 20:54:56 18° ESE
STARLINK-1112 3.6 20:52:41 10° WNW 20:56:52 87° NE 20:59:41 20° ESE
Aureole 2 4.3 20:55:58 10° NNW 20:59:04 62° WSW 21:00:36 24° S
STARLINK-1128 3.6 20:57:40 10° WNW 21:01:50 88° SSW 21:04:28 22° ESE
Cosmos 1331 Rocket 3.9 20:58:53 10° SSW 21:04:01 82° ESE 21:09:14 10° NNE
Aureole 2 Rocket 3.3 21:01:55 10° SW 21:04:54 43° WNW 21:07:46 10° N
STARLINK-1113 3.5 21:02:39 10° WNW 21:06:49 82° SSW 21:09:15 24° SE
Cosmos 1733 3.6 21:04:03 10° N 21:07:45 48° ENE 21:09:32 27° SE
Cosmos 1437 Rocket 4.2 21:06:16 10° SW 21:09:46 35° WNW 21:13:19 10° N
COSMOS 2455 4.5 21:09:45 15° ESE 21:10:40 15° ESE 21:13:55 10° ENE
STARLINK-1119 3.6 21:07:40 10° WNW 21:11:49 77° SSW 21:14:04 26° SE
Cosmos 1378 3.0 21:09:41 20° S 21:12:10 86° ESE 21:15:55 10° N
Cosmos 1302 Rocket 4.2 21:10:14 17° S 21:14:09 54° ESE 21:19:20 10° NNE
Cosmos 1271 Rocket 4.4 21:14:22 18° ESE 21:15:04 19° E 21:17:52 10° NE
USA 215 4.5 21:09:52 10° E 21:15:53 40° NNE 21:21:53 10° NW
Cosmos 1242 Rocket 3.8 21:15:26 24° ESE 21:16:10 26° E 21:19:17 10° NE
ISS -1.3 21:14:50 10° WSW 21:16:13 12° SW 21:17:02 11° SSW
STARLINK-1114 3.6 21:12:37 10° WNW 21:16:46 71° SSW 21:18:49 28° SE
MTI 4.2 21:15:23 10° NNE 21:18:23 40° E 21:18:58 35° SE
STARLINK-60 4.4 21:20:10 23° E 21:20:10 23° E 21:21:43 10° ENE
Lacrosse 5 3.8 21:15:47 10° W 21:19:10 18° WSW 21:22:07 11° SSW
Cosmos 1092 Rocket 3.9 21:15:31 17° S 21:20:23 75° E 21:26:31 10° NNE
NOSS 2-2 (D) 3.4 21:17:55 10° SW 21:21:29 71° NW 21:25:29 10° NE
STARLINK-1130 (DARKSAT) 3.6 21:17:37 10° WNW 21:21:45 66° SW 21:23:37 30° SE
CENTAUR R/B 3.5 21:16:14 10° NW 21:24:06 62° NE 21:31:08 17° ESE
Cosmos 1707 4.4 21:24:35 19° E 21:25:11 20° E 21:28:01 10° NE
STARLINK-1084 3.7 21:22:37 10° WNW 21:26:43 61° SW 21:28:24 32° SSE
ATLAS 3B R/B 3.9 21:20:56 10° NNW 21:27:05 36° NE 21:33:23 10° E
SL-27 R/B 2.7 21:24:43 10° NNW 21:28:17 57° ENE 21:29:28 36° SE
NOSS 3-2 (C) 4.2 21:21:56 10° NW 21:29:24 71° NE 21:35:37 20° SE
Cosmos 1766 3.5 21:26:49 10° NNW 21:30:47 68° W 21:32:47 28° S
STARLINK-1098 3.8 21:27:36 10° WNW 21:31:41 56° SW 21:33:11 34° SSE
Cosmos 1726 4.3 21:29:30 10° NNE 21:31:44 15° ENE 21:32:50 14° E
Cosmos 2195 Rocket 4.5 21:30:46 19° S 21:35:29 83° E 21:41:47 10° N
STARLINK-1123 3.9 21:32:35 10° WNW 21:36:37 52° SW 21:37:57 36° SSE
Cosmos 1943 Rocket 2.1 21:31:49 10° SSW 21:37:22 89° ESE 21:43:00 10° NNE
NOSS 3-4 (A) 4.0 21:36:32 26° SSE 21:38:54 36° ESE 21:44:31 10° NE
NOSS 3-4 (C) 4.0 21:36:40 26° SSE 21:39:00 36° ESE 21:44:38 10° NE
Cosmos 1428 Rocket 4.5 21:36:33 23° S 21:40:39 73° E 21:46:56 10° NNE
STARLINK-1097 4.0 21:37:37 10° WNW 21:41:37 48° SW 21:42:45 37° S
Cosmos 2082 Rocket 4.4 21:39:36 10° WNW 21:43:10 17° W 21:46:43 10° SW
SeaSat 1 3.3 21:39:22 10° NE 21:43:41 29° ESE 21:44:34 28° SE
EO 1 Del DPAF 4.2 21:40:50 10° NE 21:44:10 29° E 21:44:29 29° ESE
STARLINK-1099 4.1 21:42:36 10° WNW 21:46:34 44° SW 21:47:31 37° S
Cosmos 1975 Rocket 3.2 21:44:36 25° SSW 21:47:10 74° W 21:51:36 10° N
STARLINK-1212 4.1 21:46:18 10° NW 21:49:15 38° NNE 21:50:47 22° ENE
STARLINK-1105 4.1 21:46:46 10° NW 21:49:43 38° NNE 21:51:13 23° ENE
STARLINK-1247 4.1 21:47:39 10° NW 21:50:37 39° NNE 21:52:06 23° ENE
Cosmos 292 Rocket 3.7 21:48:20 30° S 21:50:42 69° ESE 21:55:34 10° NNE
STARLINK-1227 4.1 21:48:08 10° NW 21:51:06 39° NNE 21:52:32 23° ENE
BREEZE-M DEB (TANK) 3.7 21:35:45 10° WSW 21:51:09 85° NNW 21:55:03 10° ENE
STARLINK-1104 4.2 21:47:36 10° WNW 21:51:30 40° SW 21:52:18 36° SSW
STARLINK-1226 4.1 21:49:00 10° NW 21:51:58 40° NNE 21:53:23 24° ENE
BREEZE-M DEB (TANK) 3.5 21:48:18 10° WNW 21:52:15 57° N 21:55:59 10° E
STARLINK-1215 4.1 21:49:53 10° NW 21:52:52 40° NNE 21:54:16 24° ENE
Cosmos 2369 Rocket 2.1 21:49:04 17° SSW 21:53:33 86° ESE 21:59:14 10° NNE
STARLINK-1217 4.0 21:51:42 10° NW 21:54:41 41° NNE 21:56:01 26° ENE
S3M 4.4 21:49:05 10° N 21:55:06 52° ENE 21:58:11 28° SE
STARLINK-1229 4.0 21:52:37 10° NW 21:55:36 41° NNE 21:56:54 26° ENE
STARLINK-1144 4.3 21:52:38 10° WNW 21:56:28 37° SW 21:57:05 35° SSW
STARLINK-1270 4.0 21:53:30 10° NW 21:56:31 42° NNE 21:57:45 27° ENE
SPOT 5 4.1 21:53:31 19° SSW 21:56:50 39° W 22:01:51 10° NNW
STARLINK-1189 3.9 21:55:18 10° NW 21:58:18 43° NNE 21:59:28 28° ENE
Aureole 3 Rocket 4.4 21:52:33 10° N 21:58:51 83° E 22:03:54 27° SSE
STARLINK-1188 3.9 21:56:12 10° NW 21:59:13 43° NNE 22:00:22 29° ENE
ATLAS CENTAUR R/B 2.3 21:59:35 32° ESE 21:59:35 32° ESE 22:03:11 10° NE
STARLINK-1187 3.7 21:57:18 10° NW 22:00:19 47° NNE 22:01:14 34° ENE
STARLINK-1103 4.4 21:57:38 10° WNW 22:01:24 34° SW 22:01:51 33° SSW
Cosmos 1340 Rocket 4.0 21:57:48 10° N 22:01:27 31° ENE 22:02:31 27° ESE
STARLINK-1191 3.8 21:58:39 10° NW 22:01:39 44° NNE 22:02:39 32° ENE
STARLINK-1221 3.8 21:59:36 10° NW 22:02:36 45° NNE 22:03:35 32° ENE
ERS-1 Rocket 4.4 21:59:40 15° SSW 22:02:54 29° W 22:07:16 10° NW
STARLINK-1222 3.8 22:00:27 10° NW 22:03:28 46° NNE 22:04:23 33° ENE
Cosmos 1025 Rocket 3.1 22:02:57 43° SSE 22:04:03 57° E 22:08:16 10° NNE
STARLINK-1214 3.7 22:01:20 10° NW 22:04:22 46° NNE 22:05:16 34° ENE
Okean 2 4.5 22:02:00 19° SW 22:04:37 41° WNW 22:08:35 10° N
Cosmos 2026 Rocket 4.2 22:00:23 20° SSW 22:04:51 71° W 22:11:14 10° N
Thor Agena Rocket 3.7 21:59:52 10° NNE 22:05:07 60° ESE 22:07:12 35° SSE
EXPRESS MD2 4.4 22:01:25 10° W 22:05:18 66° N 22:13:23 10° ENE
ATLAS 2AS CENTAUR R/B 3.0 22:00:30 17° SSW 22:06:54 65° ESE 22:14:46 10° NE
Cosmos 1656 Rocket 3.8 22:04:50 33° S 22:07:12 58° ESE 22:12:41 10° NNE
BREEZE M DEB (TANK) 2.8 22:04:21 10° W 22:07:37 47° NNW 22:08:32 27° NE
Cosmos 1553 Rocket 3.9 22:02:20 10° N 22:08:40 86° E 22:11:43 32° S
BREEZE-M DEB (TANK) 4.0 21:56:23 10° WNW 22:09:45 81° SSW 22:11:56 31° ESE
Cosmos 1953 2.9 22:06:02 10° N 22:09:52 44° ENE 22:10:41 38° ESE
STARLINK-1228 3.4 22:06:46 10° WNW 22:10:15 67° NNE 22:11:08 45° E
NOSS 3-2 (A) 4.4 22:03:16 10° NW 22:10:40 56° WSW 22:15:10 28° S
Cosmos 1470 2.7 22:07:07 10° NNW 22:10:59 78° W 22:11:51 51° S
APEX 4.2 22:06:47 18° SSW 22:11:44 89° ESE 22:17:07 10° NNE
STARLINK-1235 3.2 22:09:29 10° NW 22:12:42 64° NNE 22:13:12 54° ENE
Cosmos 2292 Rocket 4.3 22:13:24 28° E 22:13:24 28° E 22:16:10 10° NNE
Cosmos 968 Rocket 3.4 22:10:29 10° NNW 22:15:38 76° WSW 22:17:31 39° S
Cosmos 1455 Rocket 3.9 22:13:43 10° NNW 22:17:49 42° W 22:19:25 29° SW
Cosmos 1655 Rocket 4.0 22:15:02 33° SSE 22:17:53 68° E 22:24:08 10° NNE
SL-4 R/B 3.3 22:20:18 16° NE 22:20:18 16° NE 22:21:04 10° NNE
ATLAS 5 CENTAUR R/B 1.6 22:21:46 61° SSE 22:21:55 62° SE 22:24:20 10° NE
USA 238 DEB 4.4 22:15:35 10° NW 22:22:25 46° WSW 22:25:51 29° S
USA 238 4.4 22:15:40 10° NW 22:22:31 47° WSW 22:25:58 29° S
Cosmos 1758 3.5 22:20:27 10° NNW 22:24:29 64° W 22:25:25 47° SSW
Terra 3.4 22:23:15 18° SW 22:25:32 26° W 22:29:33 10° NW
SL-4 R/B 2.3 22:21:18 10° WSW 22:26:06 88° SSE 22:30:58 10° ENE
Cosmos 2228 4.3 22:23:49 10° NNE 22:27:32 29° ENE 22:28:36 25° E
STARLINK-1234 3.0 22:27:14 10° WNW 22:30:16 76° WNW 22:30:16 76° WNW
In-Cosmos 22 4.2 22:30:05 41° SSE 22:31:44 60° E 22:36:56 10° NNE
Cosmos 1503 Rocket 4.1 22:30:30 10° NNW 22:35:48 71° WSW 22:37:35 42° S
Cosmos 2266 Rocket 4.0 22:33:43 37° SSE 22:36:10 68° E 22:42:10 10° NNE
STARLINK-1209 3.3 22:33:23 10° WNW 22:36:13 61° W 22:36:13 61° W
Meteor 2-8 Rocket 4.5 22:35:21 10° NNW 22:41:29 73° W 22:44:07 36° S
SJ 16-02 4.1 22:42:03 10° NNE 22:43:19 11° NE 22:44:36 10° ENE
STARLINK-1238 4.4 22:41:51 10° NW 22:45:53 50° NNE 22:48:47 18° E
Cosmos 1536 Rocket 3.9 22:45:44 40° SW 22:47:01 58° WNW 22:51:21 10° N
Cosmos 1674 3.0 22:48:20 48° E 22:48:22 48° E 22:52:02 10° NNE
Cosmos 1271 Rocket 4.1 22:49:29 26° WSW 22:50:48 34° WNW 22:54:26 10° N
STARLINK-1201 4.3 22:46:48 10° NW 22:50:53 52° NNE 22:53:33 20° E
Spot 4 4.3 22:53:29 40° SSW 22:54:48 52° W 22:59:34 10° NNW
STARLINK-60 4.1 22:52:21 14° W 22:54:51 42° NNW 22:57:56 10° NE
Cosmos 1354 Rocket 4.3 22:49:54 10° NNW 22:55:05 55° WSW 22:56:35 41° SSW
COSMOS 2455 2.8 22:52:50 33° SSW 22:55:41 85° ESE 23:01:45 10° NE
STARLINK-1206 4.2 22:51:49 10° NW 22:55:53 55° NNE 22:58:21 22° E
Cosmos 883 Rocket 4.4 22:50:23 10° N 22:56:34 89° E 22:58:57 40° S
USA 215 3.3 22:52:56 16° ESE 22:58:26 78° NNE 23:04:59 10° NW
Cosmos 1707 4.0 22:59:44 28° WSW 23:00:50 33° WNW 23:04:24 10° N
STARLINK-1205 4.1 22:56:46 10° WNW 23:00:52 58° NNE 23:03:07 25° E
Cosmos 2297 Rocket 3.8 22:57:29 10° N 23:02:22 29° NE 23:07:00 11° ESE
Helios 1A 3.4 23:01:35 46° ESE 23:02:26 55° ENE 23:06:33 10° N
Lacrosse 4 Rocket 4.4 23:03:46 10° N 23:05:35 12° NE 23:07:24 10° ENE
STARLINK-1218 4.0 23:01:46 10° WNW 23:05:53 61° NNE 23:07:55 28° E
Cosmos 1174 3.7 23:06:36 57° WNW 23:06:51 59° NW 23:10:35 10° NNE
Cosmos 1726 2.8 23:03:38 10° NNW 23:07:09 41° W 23:07:20 41° WSW
ALOS 2 2.6 23:07:47 57° SSW 23:08:33 71° WSW 23:12:57 10° NNW
Timation 2 Rocket 4.0 23:03:42 10° NNW 23:10:03 73° ENE 23:12:55 33° SE
STARLINK-1254 3.9 23:06:44 10° WNW 23:10:52 65° NNE 23:12:41 31° E
Cosmos 2058 Rocket 3.8 23:06:38 10° N 23:10:54 43° ENE 23:11:58 36° ESE
COSMOS 2487 3.2 23:07:37 10° NNW 23:10:32 40° W 23:10:32 40° W
CENTAUR R/B 3.7 23:07:13 10° NW 23:14:49 43° WSW 23:18:17 31° SSW
STARLINK-1231 3.8 23:11:42 10° WNW 23:15:51 69° NNE 23:17:27 35° E
Meteor 2-5 Rocket 3.8 23:14:12 43° SSE 23:15:53 65° E 23:21:27 10° NNE
Meteor 1-16 Rocket 4.5 23:10:50 10° NNW 23:16:11 54° W 23:17:49 39° SW
STARLINK-1378 4.4 23:18:28 34° E 23:18:28 34° E 23:20:54 10° ENE
Cosmos 1867 4.1 23:12:47 10° NW 23:17:51 40° WSW 23:18:45 37° SW
ATLAS 3B R/B 2.7 23:11:30 10° NW 23:18:15 69° WSW 23:21:10 37° SSE
SL-14 R/B 4.0 23:19:11 39° E 23:19:16 39° E 23:22:52 10° NNE
FALCON 9 DEB 3.3 23:20:08 69° NNE 23:20:08 69° NNE 23:23:16 10° ENE
STARLINK-1379 4.3 23:21:51 37° E 23:21:51 37° E 23:24:25 10° ENE
STARLINK-1232 3.7 23:16:42 10° WNW 23:20:51 73° NNE 23:22:15 40° ESE
Cosmos 1606 Rocket 3.4 23:16:39 10° NNW 23:20:59 77° W 23:21:36 62° SSW
SeaSat 1 3.4 23:16:37 10° NNE 23:21:19 45° NW 23:24:20 20° WSW
STARLINK-1329 4.2 23:23:14 38° E 23:23:14 38° E 23:25:53 10° ENE
Cosmos 2098 Rocket 4.4 23:20:08 35° SSW 23:23:30 82° W 23:31:03 10° N
STARLINK-29 4.0 23:24:02 38° WNW 23:24:45 45° NNW 23:27:51 10° NE
STARLINK-1362 4.1 23:26:40 43° E 23:26:40 43° E 23:29:29 10° ENE
STARLINK-1208 3.6 23:21:39 10° WNW 23:25:48 78° NNE 23:27:00 45° ESE
ATLAS CENTAUR R/B 3.0 23:26:15 10° NNW 23:28:17 27° NE 23:31:41 10° E
STARLINK-1373 3.9 23:30:05 48° E 23:30:05 48° E 23:33:05 10° ENE
NOSS 3-4 (A) 4.2 23:23:52 10° WSW 23:29:35 50° NW 23:35:50 10° NNE
NOSS 3-4 (C) 4.2 23:24:01 11° WSW 23:29:40 50° NW 23:35:56 10° NNE
RESURS DK-1 2.2 23:29:48 67° SW 23:30:19 85° WNW 23:34:30 10° NNE
STARLINK-1365 3.7 23:31:12 53° E 23:31:12 53° E 23:34:20 10° ENE
STARLINK-1271 3.6 23:26:40 10° WNW 23:30:49 83° NNE 23:31:49 51° ESE
STARLINK-1390 3.7 23:33:34 53° E 23:33:34 53° E 23:36:42 10° ENE
Cosmos 1697 Rocket 4.5 23:32:47 16° ESE 23:34:15 17° E 23:37:49 10° ENE
Cosmos 2084 3.4 23:33:36 61° SSW 23:34:22 85° SE 23:38:52 10° NE
Cosmos 2315 Rocket 4.2 23:28:36 10° NNW 23:34:41 59° W 23:36:59 37° SSW
STARLINK-1154 3.5 23:31:38 10° WNW 23:35:48 88° NNE 23:36:35 58° ESE
BREEZE-M R/B 3.6 23:31:45 24° SW 23:35:56 60° SSE 23:39:49 10° ENE
Cosmos 1626 2.2 23:36:01 65° E 23:36:01 65° E 23:39:43 10° NNE
Cosmos 1340 Rocket 4.4 23:34:31 10° NW 23:37:44 23° W 23:38:06 23° W
ATLAS CENTAUR R/B 2.8 23:35:42 18° W 23:38:19 34° NW 23:42:05 10° NNE
Cosmos 2369 Rocket 4.5 23:34:13 10° W 23:38:20 20° NW 23:42:26 10° N
Okean 1-7 Rocket 3.5 23:37:39 59° SSE 23:38:26 78° E 23:42:59 10° NNE
Cosmos 2227 Rocket 3.1 23:34:05 10° NNW 23:39:32 44° NE 23:43:29 18° ESE
STARLINK-1197 3.5 23:36:36 10° WNW 23:40:45 86° SSW 23:41:21 64° SE
Nadezhda 2 Rocket 4.4 23:39:44 41° SSW 23:42:03 84° W 23:48:15 10° N
Cosmos 1908 4.1 23:38:54 10° NNW 23:42:26 36° W 23:42:29 36° W
CZ-4 R/B 4.1 23:38:10 10° NNE 23:42:52 55° E 23:43:50 46° SE
STARLINK-1198 3.4 23:41:34 10° WNW 23:45:44 81° SSW 23:46:07 71° SSE
Cosmos 1953 4.4 23:43:30 10° NW 23:45:53 15° W 23:46:22 15° W
Landsat 4 3.8 23:47:02 10° N 23:50:43 61° WNW 23:51:00 59° W
STARLINK-1199 3.4 23:46:34 10° WNW 23:50:43 75° SW 23:50:55 73° S
Meteor 2-21 Rocket 4.4 23:50:06 41° S 23:52:27 83° E 23:58:41 10° N
STARLINK-1210 3.5 23:51:33 10° WNW 23:55:41 70° SW 23:55:42 70° SSW
